Location: Newark
(35.8967°N, 14.4625°E)
Time: 22:25:00
(UTC+00:00)

N. Korean satellite - Pass Details

Date: 15 November 2019
Orbit: 455 x 506 km, 97.2° (Epoch: 10 December)

Event Time Altitude Azimuth Distance (km) Brightness Sun altitude
Rises 16:50:03 0° 194° (SSW) 2,524 10.6 -11.4°
Reaches altitude 10° 16:52:22 10° 209° (SSW) 1,660 9.9 -11.8°
Maximum altitude 16:55:19 24° 264° (W) 1,051 9.3 -12.4°
Drops below altitude 10° 16:58:19 10° 320° (NW) 1,695 9.7 -13.0°
Sets 17:00:43 0° 334° (NNW) 2,591 10.4 -13.5°
